Location: Unspecified
(0.0000°N, 0.0000°E)
Time: 10:46:22
(UTC+00:00)

Explorer 11/Cluster Stage 4 - Pass Details

Date: 03 October 2020
Orbit: 467 x 1258 km, 28.8° (Epoch: 28 October)

Event Time Altitude Azimuth Distance (km) Brightness Sun altitude
Rises 09:15:02 0° 264° (W) 4,198 9.9 51.3°
Reaches altitude 10° 09:19:09 10° 246° (WSW) 3,208 9.5 52.4°
Maximum altitude 09:24:19 18° 207° (SSW) 2,566 9.3 53.6°
Drops below altitude 10° 09:29:11 10° 166° (SSE) 2,994 9.9 54.8°
Sets 09:32:52 0° 148° (SSE) 3,818 10.4 55.8°
